TimeEST,TemperatureF,Dew PointF,Humidity,Sea Level PressureIn,VisibilityMPH,Wind Direction,Wind SpeedMPH,Gust SpeedMPH,PrecipitationIn,Events,Conditions,WindDirDegrees,DateUTC
12:51 AM,28.9,21.0,72,30.22,10.0,West,5.8,-,N/A,,Partly Cloudy,260,2013-12-31 05:51:00
1:51 AM,28.0,19.9,72,30.21,10.0,WSW,6.9,-,N/A,,Clear,250,2013-12-31 06:51:00
2:51 AM,28.0,21.0,75,30.22,10.0,WSW,6.9,-,N/A,,Mostly Cloudy,240,2013-12-31 07:51:00
3:51 AM,28.0,21.0,75,30.22,10.0,WSW,6.9,-,N/A,,Overcast,240,2013-12-31 08:51:00
4:25 AM,28.4,21.2,74,30.20,10.0,WSW,4.6,-,N/A,,Overcast,240,2013-12-31 09:25:00
4:51 AM,27.0,21.0,78,30.21,10.0,South,6.9,-,N/A,,Overcast,190,2013-12-31 09:51:00
5:51 AM,28.0,21.0,75,30.20,10.0,SSW,6.9,-,N/A,,Overcast,210,2013-12-31 10:51:00
6:51 AM,27.0,21.0,78,30.21,9.0,SW,5.8,-,N/A,,Scattered Clouds,220,2013-12-31 11:51:00
7:51 AM,27.0,19.9,75,30.25,10.0,WSW,11.5,16.1,N/A,,Scattered Clouds,240,2013-12-31 12:51:00
8:51 AM,27.0,19.0,72,30.30,10.0,WSW,9.2,20.7,N/A,,Scattered Clouds,250,2013-12-31 13:51:00
9:51 AM,28.0,18.0,66,30.34,10.0,WSW,10.4,19.6,N/A,,Overcast,250,2013-12-31 14:51:00
10:51 AM,28.9,19.0,67,30.39,10.0,WSW,15.0,24.2,N/A,,Overcast,240,2013-12-31 15:51:00
11:51 AM,30.0,18.0,61,30.39,10.0,West,10.4,20.7,N/A,,Overcast,260,2013-12-31 16:51:00
11:58 AM,30.2,17.6,60,30.37,10.0,WSW,11.5,18.4,N/A,,Overcast,250,2013-12-31 16:58:00
12:51 PM,33.1,18.0,54,30.38,10.0,WSW,9.2,-,N/A,,Scattered Clouds,240,2013-12-31 17:51:00
1:51 PM,35.1,19.0,52,30.35,10.0,Variable,6.9,-,N/A,,Clear,0,2013-12-31 18:51:00
2:51 PM,36.0,18.0,48,30.36,10.0,WSW,6.9,16.1,N/A,,Clear,250,2013-12-31 19:51:00
3:51 PM,36.0,18.0,48,30.36,10.0,West,8.1,-,N/A,,Clear,260,2013-12-31 20:51:00
4:51 PM,34.0,17.1,50,30.37,10.0,WSW,8.1,-,N/A,,Clear,250,2013-12-31 21:51:00
5:51 PM,32.0,17.1,54,30.35,10.0,WSW,3.5,-,N/A,,Clear,250,2013-12-31 22:51:00
6:51 PM,30.9,18.0,59,30.37,10.0,Calm,Calm,-,N/A,,Clear,0,2013-12-31 23:51:00
7:51 PM,30.0,18.0,61,30.37,10.0,Calm,Calm,-,N/A,,Clear,0,2014-01-01 00:51:00
8:51 PM,27.0,19.9,75,30.36,10.0,Calm,Calm,-,N/A,,Clear,0,2014-01-01 01:51:00
9:51 PM,26.1,19.0,75,30.35,10.0,East,3.5,-,N/A,,Clear,100,2014-01-01 02:51:00
10:51 PM,25.0,19.0,78,30.33,10.0,Calm,Calm,-,N/A,,Clear,0,2014-01-01 03:51:00
11:51 PM,26.1,19.9,78,30.32,10.0,Calm,Calm,-,N/A,,Clear,0,2014-01-01 04:51:00